Theta_e
301 302 303 303 303 304 305 306 306 307 308 309 310 311 311 312 311 311 311 311 311 312 312 311 310 310 310 309 309 308 307 306 305 305 304 303 303 302 302 302 302 302
300 301 301 302 302 303 304 306 306 307 307 308 309 310 311 310 310 311 311 311 310 311 311 311 310 310 310 309 308 308 307 306 306 305 304 302 302 302 302 302 302 302
297 298 300 300 301 301 302 303 305 306 306 307 308 309 310 310 310 310 311 311 310 310 310 310 310 309 309 309 308 308 308 306 306 304 303 303 303 302 302 303 303 302
296 298 299 300 300 301 301 302 302 304 303 304 305 307 308 308 309 309 310 308 310 310 310 309 309 309 309 309 308 307 308 307 307 304 303 303 303 303 302 302 302 302
297 297 297 298 298 298 299 301 302 302 303 304 303 304 305 306 307 307 308 308 309 308 308 308 308 308 308 308 307 307 306 306 305 304 303 303 303 302 303 301 301 301
295 296 296 297 297 297 299 300 301 301 302 300 303 303 304 305 306 307 307 307 308 308 307 307 307 307 307 307 306 307 306 305 304 303 303 303 303 302 303 302 301 300
296 296 296 296 296 296 298 299 300 301 302 303 301 302 303 304 304 305 306 307 307 307 307 306 306 306 306 306 306 305 305 305 303 302 303 303 303 301 301 301 301 301
295 295 296 295 295 296 297 298 298 299 300 298 300 302 302 303 304 304 305 305 306 306 306 306 305 305 305 305 305 304 304 304 303 302 302 303 303 302 301 302 301 300
294 295 295 295 296 296 296 296 296 296 296 299 300 300 300 302 303 303 303 304 304 304 304 304 304 304 304 304 305 305 304 304 303 302 302 302 302 302 301 301 300 300
294 294 295 294 294 295 295 294 295 295 295 295 297 297 299 300 301 302 302 302 302 302 302 303 303 303 303 304 304 304 304 304 304 303 302 303 303 302 301 301 301 300
293 293 293 293 293 294 294 294 294 294 294 295 296 296 297 298 299 299 301 301 302 302 302 302 303 303 303 303 303 304 304 304 304 303 302 302 303 303 300 301 301 301
292 292 293 293 293 293 294 294 294 293 294 294 295 297 296 297 299 299 301 301 301 302 302 302 302 303 303 303 303 303 303 303 303 302 302 302 302 302 302 302 301 301
294 293 293 293 293 295 293 293 293 295 294 296 296 297 296 297 297 298 299 300 301 301 301 301 301 302 302 303 302 302 302 302 302 302 302 302 302 302 302 301 301 301
291 293 294 295 294 293 294 294 294 293 294 295 294 295 296 297 298 298 299 298 300 300 301 301 301 301 302 302 303 303 303 302 303 302 302 301 301 301 301 301 301 301
288 289 290 291 292 294 294 294 295 295 295 294 294 294 297 297 297 297 297 297 298 299 300 300 301 302 303 303 302 302 303 302 302 302 301 301 300 300 300 300 300 300
286 286 286 287 287 288 290 291 292 293 294 295 296 297 296 296 295 296 298 299 298 298 299 300 301 302 298 298 299 302 302 302 301 301 301 300 299 298 298 298 299 299
286 286 286 286 286 286 287 287 288 289 289 290 290 290 293 294 296 297 298 298 299 299 299 300 301 301 296 298 298 298 300 301 301 300 300 299 299 298 298 297 297 297
286 286 286 286 287 286 285 285 286 286 287 287 287 288 288 288 290 293 294 295 297 297 298 298 299 296 297 297 297 298 297 300 300 300 299 299 298 298 298 297 297 296
286 286 286 287 287 286 285 285 286 286 286 286 286 286 286 287 289 289 289 289 291 293 293 294 293 295 296 296 296 297 297 297 299 299 298 298 298 297 297 296 295 294
286 286 286 287 287 287 287 287 286 286 286 286 286 286 286 286 285 285 286 287 287 288 289 289 290 292 294 295 295 296 296 297 298 297 297 297 296 296 296 295 295 294
285 285 285 286 286 287 287 287 287 287 287 287 286 286 285 285 285 285 285 285 285 285 286 287 288 290 292 293 294 295 296 295 296 296 295 295 295 294 295 295 295 294
283 284 284 285 286 286 286 286 287 287 287 287 287 287 286 284 284 283 283 284 284 284 285 285 285 288 289 290 292 293 295 294 293 294 293 293 292 292 292 291 292 292
282 283 283 284 285 285 285 285 286 286 287 287 287 287 287 286 284 284 283 283 283 283 283 284 285 287 288 290 292 293 293 289 289 288 288 289 290 290 289 289 290 291
282 282 282 283 283 283 284 285 286 286 286 287 286 286 286 286 286 286 285 285 285 284 284 284 285 286 287 289 290 291 290 288 287 287 286 287 288 287 286 286 288 288
281 281 281 282 282 283 284 284 285 285 286 286 286 287 287 286 286 285 285 284 284 285 285 285 285 286 287 288 289 290 289 287 287 288 287 287 286 286 286 285 286 286
280 280 280 281 281 282 283 284 285 284 285 285 286 286 286 285 284 284 284 283 283 283 283 283 284 284 285 287 288 289 290 289 289 288 288 288 286 285 287 287 286 286
Wind_Speed
7 7 9 8 8 8 8 9 8 9 9 8 9 9 9 9 8 10 10 8 9 10 9 9 8 8 8 8 8 8 9 10 9 9 9 10 10 10 10 11 9 9
7 6 6 6 7 7 8 9 9 9 9 9 8 7 7 6 7 9 9 10 9 9 8 8 8 8 9 8 8 9 8 9 10 7 9 10 10 9 11 11 11 9
5 5 6 7 8 7 7 6 6 7 7 8 7 6 7 6 7 8 8 9 9 8 8 8 8 9 9 9 8 9 9 9 10 8 9 11 9 10 10 9 9 11
4 5 5 5 5 5 5 5 5 5 4 6 7 6 6 6 6 8 8 9 9 9 8 8 9 8 8 9 8 9 9 9 9 7 9 8 8 9 9 8 8 9
5 5 4 4 4 4 4 5 6 5 6 6 4 5 5 5 6 6 7 7 8 8 7 8 8 8 8 8 8 8 8 8 7 7 8 9 8 8 8 8 8 9
3 3 3 4 4 4 5 5 5 5 5 5 6 5 6 6 6 7 7 8 7 8 7 7 7 7 7 8 8 9 8 8 7 8 9 9 8 7 7 8 9 9
4 3 3 3 3 4 5 6 5 6 6 6 4 6 6 6 7 7 7 8 7 7 8 7 7 7 7 7 8 8 8 7 6 8 9 8 7 8 7 7 9 10
4 3 2 2 4 4 5 5 5 5 5 4 5 6 6 7 7 7 7 7 7 7 7 7 7 7 7 7 8 8 8 6 7 8 8 9 7 9 8 7 8 10
1 2 2 3 5 5 5 5 4 4 4 5 6 5 5 6 7 7 7 7 7 7 7 7 8 8 7 8 9 9 9 8 7 8 9 9 9 10 9 8 8 9
2 1 2 3 4 3 3 3 3 3 3 4 4 4 6 6 5 6 6 7 7 7 7 8 7 7 7 8 9 9 9 9 8 8 8 9 9 9 8 8 10 9
3 3 3 4 4 3 3 2 2 3 3 4 4 5 5 5 5 5 6 7 8 8 8 8 9 9 9 8 8 8 8 8 8 8 8 9 9 9 9 9 9 10
3 2 4 4 4 4 5 4 4 4 4 4 4 5 4 5 6 6 7 8 7 7 8 8 8 8 9 9 9 8 7 7 7 8 8 8 9 9 9 9 10 10
6 4 3 3 4 4 4 3 4 4 4 5 5 5 5 5 5 5 6 6 7 6 7 7 7 7 8 8 7 7 8 8 8 8 8 8 8 9 8 9 9 9
9 8 7 4 3 3 3 3 3 3 4 4 3 4 4 5 5 6 6 5 6 6 6 6 7 7 7 7 7 8 8 8 8 8 8 8 7 7 8 8 9 9
9 8 8 9 8 7 4 3 3 3 3 3 3 4 4 5 4 5 5 5 5 5 6 6 7 8 7 7 8 8 7 8 8 8 8 8 7 7 7 8 7 8
8 8 9 9 10 9 8 7 6 4 3 3 3 4 4 4 4 5 5 6 6 6 6 6 7 6 8 12 11 8 8 7 7 8 8 8 8 8 7 7 8 7
8 9 8 9 8 8 8 9 8 7 6 4 4 3 3 3 3 4 5 5 6 6 7 7 7 6 10 12 13 13 9 7 8 8 8 8 8 9 9 9 8 7
8 9 10 9 8 9 8 8 7 8 8 7 6 6 5 3 2 3 3 4 4 4 6 6 6 7 11 11 13 13 12 8 7 7 8 8 8 9 9 8 8 8
6 6 7 7 8 8 7 8 8 9 9 9 8 6 4 4 3 2 3 3 3 4 5 5 4 7 9 10 11 12 14 11 7 8 8 9 9 9 8 8 7 7
6 6 6 6 5 6 6 7 8 8 7 6 7 8 7 6 4 4 3 2 3 3 4 4 4 6 7 9 10 12 13 12 7 7 8 8 8 8 8 8 8 8
7 6 6 6 6 5 6 6 6 6 6 7 6 6 7 7 5 4 4 3 3 2 3 4 3 9 8 8 9 10 12 11 7 6 6 7 7 7 8 8 8 8
6 6 6 6 6 6 6 6 6 7 6 6 6 6 5 5 6 5 7 6 5 4 3 3 4 10 9 9 7 6 8 6 5 6 7 7 7 7 6 6 6 7
7 6 6 5 5 5 6 6 6 6 6 5 6 6 6 6 5 4 4 5 6 7 6 5 5 7 8 9 7 4 1 3 4 4 5 6 7 6 6 5 6 6
7 7 8 7 7 6 6 5 4 4 4 4 4 4 6 6 5 5 5 5 5 5 4 4 4 5 8 8 8 8 5 1 1 3 4 5 6 5 4 4 5 9
6 6 5 6 7 6 5 6 6 6 5 5 4 3 4 3 4 4 4 4 4 3 4 5 4 5 8 10 9 7 4 3 2 0 3 5 4 5 4 4 5 6
7 8 7 6 7 6 5 4 3 2 4 4 4 3 3 3 4 3 4 4 4 4 4 4 4 4 6 11 11 11 9 4 0 1 3 4 3 4 5 5 5 5
Wind_Direction
200 194 199 197 202 195 190 194 197 198 200 199 201 205 202 202 186 192 199 195 198 200 199 195 189 191 193 190 191 193 200 205 206 202 203 203 210 204 206 207 205 206
216 207 206 201 202 201 202 195 194 196 199 198 204 201 202 187 191 191 195 199 200 203 198 196 192 191 191 193 192 195 202 203 209 196 201 205 210 202 211 206 207 208
222 217 211 207 208 208 204 201 197 201 197 201 199 198 197 189 190 195 197 199 202 203 198 199 198 195 194 197 192 198 202 203 210 196 199 208 205 206 210 202 207 204
224 221 219 222 217 210 203 197 209 205 203 199 203 198 190 188 186 192 197 198 203 203 201 199 202 198 196 197 193 202 206 206 207 190 202 209 208 209 211 199 204 206
208 219 224 227 228 217 198 204 205 204 203 207 194 189 188 181 188 192 196 199 203 203 199 203 201 201 196 197 195 205 205 208 199 192 202 211 209 203 212 198 201 204
251 225 218 210 207 195 202 209 209 200 203 196 199 185 192 185 190 193 194 198 201 201 202 201 200 201 194 199 197 209 203 204 199 192 204 211 208 201 205 203 205 206
255 247 238 222 206 199 199 209 205 202 202 201 175 196 185 190 195 196 196 200 197 199 201 200 198 199 195 198 204 210 209 205 195 196 205 212 204 206 204 199 207 210
276 268 237 213 211 204 210 207 207 203 202 184 194 202 187 194 197 196 195 196 197 200 201 201 200 199 194 196 206 209 212 204 200 198 208 212 203 211 201 202 205 211
297 284 279 238 216 213 210 208 207 208 191 192 201 199 199 199 197 194 195 193 197 199 198 202 202 201 196 198 206 206 209 208 202 200 207 210 210 213 204 198 204 211
233 259 265 258 250 258 247 237 207 193 175 187 199 186 193 205 193 195 192 192 197 199 198 200 201 200 201 205 208 207 211 210 204 204 206 212 213 212 205 198 206 209
218 210 220 241 244 258 260 254 244 223 188 188 175 181 196 187 195 186 193 194 200 201 199 201 201 198 202 206 208 209 211 211 209 207 210 213 214 212 207 203 206 210
234 219 224 227 224 228 227 225 221 213 216 215 191 195 190 189 184 191 193 201 205 205 202 203 201 201 204 204 204 205 208 210 210 209 211 212 215 215 211 207 208 210
343 313 284 251 235 233 231 225 222 222 213 221 208 202 195 195 199 195 205 201 208 203 204 203 204 204 206 206 204 204 206 207 211 212 211 212 215 214 213 211 210 209
3 357 355 337 312 299 272 253 247 236 230 235 211 215 213 209 203 205 210 205 209 206 207 200 204 207 208 207 205 204 205 210 210 211 214 215 215 214 213 213 212 210
1 1 2 5 6 12 3 330 285 260 249 240 225 226 218 216 213 206 206 213 217 210 209 205 208 211 206 203 203 207 207 211 210 212 213 215 216 216 215 215 214 213
9 9 7 6 10 7 0 355 351 331 308 271 248 233 227 221 214 214 209 211 209 212 211 210 216 217 208 203 201 201 202 206 208 213 212 214 214 217 222 219 217 213
24 17 11 14 5 5 2 2 356 352 10 5 345 330 303 286 240 225 225 218 213 211 214 218 221 220 210 206 209 206 200 203 206 210 209 212 214 213 219 217 221 219
37 30 27 18 13 9 4 359 0 12 14 5 2 360 340 347 305 263 264 245 234 232 227 227 230 227 216 214 212 210 205 205 206 209 208 212 214 215 218 213 215 217
34 35 33 28 20 10 6 9 11 13 11 5 355 332 328 349 314 322 290 307 293 262 253 251 252 247 236 225 219 215 213 209 212 211 208 215 216 216 215 213 212 214
27 33 39 36 31 25 17 18 18 12 2 0 352 356 358 345 346 340 321 312 277 259 266 285 273 287 267 243 229 221 218 211 218 212 215 218 218 216 215 214 211 210
19 23 30 28 25 29 30 28 23 10 12 5 356 352 350 340 335 347 345 338 338 320 308 296 326 5 348 317 282 245 227 213 221 219 221 226 225 221 219 215 213 211
5 7 17 19 23 27 31 29 23 16 2 0 354 346 353 2 7 22 8 7 11 19 41 14 25 24 12 0 340 310 271 241 229 223 225 228 230 229 226 222 218 210
5 360 359 4 17 27 27 21 16 15 2 360 1 355 354 7 2 15 16 25 23 24 24 30 32 18 15 15 11 2 309 225 243 252 247 240 239 235 230 225 220 213
4 1 2 354 5 19 19 15 14 21 16 5 13 5 6 355 347 8 16 24 32 33 20 17 7 2 13 15 19 29 60 92 220 234 253 253 262 258 248 243 234 227
3 360 7 360 3 3 355 5 7 5 1 2 14 19 17 344 348 2 3 9 9 16 26 30 1 353 358 358 356 5 31 62 71 238 258 258 264 279 277 253 257 242
1 357 357 1 1 350 342 344 354 3 21 18 12 22 12 12 360 2 4 357 351 359 8 16 8 350 350 353 349 345 340 339 145 243 264 269 270 261 275 269 250 253